Weather in Quarteira

Portugal     37°04′08″N   8°06′09″W
temp.,
°C
wind,
m/s
gust,
m/s
humid.,
%
clouds,
%
prec.,
mm/h
press.,
hPa
HPBL,
m
14 may, fri
fri1401:00+16nw6118450 0.0 1020552
04:00+15nnw47840 0.0 1019392
07:00+14nw34830 0.0 1019233
10:00+18nnw356098 0.0 1020482
13:00+21w355748 0.0 1019486
16:00+21sw45635 0.0 1018639
19:00+23nnw445425 0.0 1017400
22:00+19nnw6106710 0.0 1018175
15 may, sat
sat1501:00+18n610705 0.0 1018257
04:00+17nw237190 0.0 101762
07:00+16nnw33715 0.0 1018109
10:00+21n34545 0.0 1018189
13:00+24sw13450 0.0 1017445
16:00+23sw35586 0.0 1016597
19:00+25nnw554798 0.0 1015308
22:00+20nnw6106716 0.0 1017152
16 may, sun
sun1601:00+19n6116927 0.0 1016195
04:00+19nw34715 0.0 101657
07:00+18nnw347314 0.0 101664
10:00+22n34580 0.0 1017208
13:00+25nnw34480 0.0 1016432
16:00+26wnw45510 0.0 1014630
19:00+25nnw810547 0.0 1014357
22:00+20nnw7117122 0.0 1016204
17 may, mon
mon1701:00+19nnw711695 0.0 1017257
04:00+18nnw6116422 0.0 1017284
07:00+17nw466586 0.0 1018176
10:00+21nnw6858100 0.0 1019263
13:00+24nw55535 0.0 1019452
16:00+25nw56495 0.0 1018583
19:00+24nw895495 0.0 1018351
22:00+19nw711735 0.0 1021268
18 may, tue
tue1801:00+18nnw59725 0.0 1021225
04:00+17nnw476422 0.0 1020225
07:00+17nnw45485 0.0 1021196
10:00+20n453543 0.0 1022201
13:00+24n12385 0.0 1021395
16:00+24w464816 0.0 1019579
19:00+26n66356 0.0 1019341
22:00+22nnw812465 0.0 1021188